Location: Granada
(37.1830°N, 3.6000°W)
Time: 03:07:04
(UTC+02:00)

Iridium 70 - Visible Passes

Search period start: 25 May 2017 00:00
Search period end: 04 June 2017 00:00
Orbit: 776 x 779 km, 86.4° (Epoch: 24 May)

Date Brightness Start Highest point End Pass type
(mag) Time Alt. Az. Time Alt. Az. Time Alt. Az.
25 May 6.4 01:34:53 45° NNE 01:34:53 45° NNE 01:38:38 10° N visible
25 May 7.8 03:15:21 13° WNW 03:15:21 13° WNW 03:17:05 10° NW visible
26 May 6.9 01:01:20 29° ENE 01:01:20 29° ENE 01:04:42 10° NNE visible
26 May 7.2 02:41:47 24° WNW 02:41:47 24° WNW 02:45:04 10° NNW visible
27 May 7.5 00:27:46 17° ENE 00:27:46 17° ENE 00:30:11 10° NE visible
27 May 6.5 02:08:14 40° NW 02:08:14 40° NW 02:12:08 10° N visible
28 May 6.0 01:34:40 57° N 01:34:40 57° N 01:38:47 10° N visible
29 May 6.3 01:01:06 42° NE 01:01:06 42° NE 01:05:05 10° NNE visible
29 May 7.6 02:41:33 17° WNW 02:41:33 17° WNW 02:44:26 10° NW visible
30 May 7.0 00:27:31 24° ENE 00:27:31 24° ENE 00:30:57 10° NNE visible
30 May 6.9 02:07:59 31° WNW 02:07:59 31° WNW 02:11:55 10° NNW visible
30 May 7.6 23:53:56 13° ENE 23:53:56 13° ENE 23:55:57 10° NE visible
31 May 6.1 01:34:23 54° NW 01:34:23 54° NW 01:38:48 10° N visible
01 Jun 5.8 01:00:48 62° NE 01:00:48 62° NE 01:05:18 10° N visible
01 Jun 7.9 02:41:15 11° WNW 02:41:21 11° WNW 02:43:03 10° NW visible
02 Jun 6.4 00:27:11 36° ENE 00:27:11 36° ENE 00:31:27 10° NNE visible
02 Jun 7.3 02:07:39 22° WNW 02:07:39 22° WNW 02:11:30 10° NNW visible
02 Jun 7.1 23:53:35 20° ENE 23:53:35 20° ENE 23:57:05 10° NE visible
03 Jun 6.4 01:34:02 40° WNW 01:34:02 40° WNW 01:38:41 10° NNW visible
